Location: Unspecified
(0.0000°N, 0.0000°E)
Time: 08:35:24
(UTC+00:00)

Transit 2A Rocket - All Passes

Search period start: 25 April 2017 00:00
Search period end: 05 May 2017 00:00
Orbit: 594 x 910 km, 66.7° (Epoch: 23 April)

Date Brightness Start Highest point End Pass type
(mag) Time Alt. Az. Time Alt. Az. Time Alt. Az.
25 Apr - 08:56:49 10° SSW 09:01:48 72° WNW 09:06:21 10° NNE daylight
25 Apr - 19:44:26 10° NNE 19:48:15 20° ENE 19:52:15 10° ESE visible
25 Apr - 21:25:52 10° NW 21:30:33 30° WSW 21:35:34 10° S visible
26 Apr - 08:14:37 10° S 08:19:28 49° ESE 08:23:54 10° NE daylight
26 Apr - 20:42:52 10° NNW 20:48:09 61° WSW 20:53:54 10° S visible
27 Apr - 07:33:13 10° SSE 07:37:04 22° ESE 07:40:40 10° ENE daylight
27 Apr - 09:16:04 10° WSW 09:19:20 18° WNW 09:22:25 10° NNW daylight
27 Apr - 20:00:31 10° NNW 20:05:49 67° ENE 20:11:36 10° SSE visible
28 Apr - 08:32:29 10° SW 08:37:05 40° WNW 08:41:20 10° N daylight
28 Apr - 19:18:49 10° N 19:23:33 32° ENE 19:28:38 10° SE visible
28 Apr - 21:02:12 10° WNW 21:05:59 19° WSW 21:09:58 10° SSW visible
29 Apr - 07:49:50 10° SSW 07:54:48 87° ESE 07:59:21 10° NNE daylight
29 Apr - 18:38:08 10° NE 18:41:18 16° ENE 18:44:35 10° ESE visible
29 Apr - 20:18:33 10° NW 20:23:33 37° WSW 20:28:56 10° S visible
30 Apr - 07:07:52 10° S 07:12:27 37° ESE 07:16:40 10° NE daylight
30 Apr - 19:35:47 10° NNW 19:41:11 77° WSW 19:47:03 10° SSE visible
01 May - 06:26:51 10° SSE 06:30:02 17° ESE 06:33:02 10° ENE daylight
01 May - 08:08:33 10° SW 08:12:21 23° WNW 08:15:56 10° NNW daylight
01 May - 18:53:38 10° N 18:58:52 52° ENE 19:04:32 10° SSE visible
01 May - 20:39:44 10° W 20:41:27 11° WSW 20:43:12 10° SW visible
02 May - 07:25:20 10° SSW 07:30:06 53° WNW 07:34:30 10° N daylight
02 May - 18:12:11 10° NNE 18:16:36 26° ENE 18:21:18 10° SE visible
02 May - 19:54:37 10° WNW 19:58:58 24° WSW 20:03:35 10° SSW visible
03 May - 06:42:55 10° SSW 06:47:48 66° ESE 06:52:17 10° NNE daylight
03 May - 17:32:12 10° NE 17:34:20 12° ENE 17:36:31 10° E daylight
03 May - 19:11:20 10° NW 19:16:33 47° WSW 19:22:12 10° S visible
04 May - 06:01:12 10° S 06:05:25 28° ESE 06:09:21 10° NE daylight
04 May - 07:45:26 10° W 07:47:37 13° WNW 07:49:45 10° NW daylight
04 May - 18:28:46 10° NNW 18:34:12 85° ENE 18:40:07 10° SSE visible
